TimeAKDT,TemperatureF,Dew PointF,Humidity,Sea Level PressureIn,VisibilityMPH,Wind Direction,Wind SpeedMPH,Gust SpeedMPH,PrecipitationIn,Events,Conditions,WindDirDegrees,DateUTC
12:16 AM,39.2,37.4,93,29.39,10.0,Calm,Calm,-,0.01,,Overcast,0,2013-10-28 08:16:00
12:36 AM,39.2,37.4,93,29.37,10.0,Calm,Calm,-,0.01,,Overcast,0,2013-10-28 08:36:00
12:56 AM,39.2,37.4,93,29.36,10.0,Calm,Calm,-,0.01,,Overcast,0,2013-10-28 08:56:00
1:16 AM,39.2,37.4,93,29.34,10.0,Calm,Calm,-,N/A,,Overcast,0,2013-10-28 09:16:00
1:36 AM,39.2,37.4,93,29.33,10.0,Calm,Calm,-,N/A,,Overcast,0,2013-10-28 09:36:00
1:56 AM,39.2,37.4,93,29.32,5.0,Calm,Calm,-,N/A,,Overcast,0,2013-10-28 09:56:00
2:16 AM,39.2,37.4,93,29.30,2.5,Calm,Calm,-,N/A,,Overcast,0,2013-10-28 10:16:00
2:56 AM,37.4,37.4,100,29.29,2.0,Calm,Calm,-,0.01,,Overcast,0,2013-10-28 10:56:00
3:16 AM,39.2,37.4,93,29.27,3.0,Calm,Calm,-,N/A,,Overcast,0,2013-10-28 11:16:00
3:36 AM,37.4,37.4,100,29.25,3.0,Calm,Calm,-,0.01,,Overcast,0,2013-10-28 11:36:00
3:56 AM,37.4,37.4,100,29.24,3.0,Calm,Calm,-,0.01,,Overcast,0,2013-10-28 11:56:00
4:16 AM,39.2,37.4,93,29.23,2.5,Calm,Calm,-,N/A,,Overcast,0,2013-10-28 12:16:00
4:36 AM,39.2,37.4,93,29.22,2.5,Calm,Calm,-,N/A,,Overcast,0,2013-10-28 12:36:00
4:56 AM,39.2,37.4,93,29.21,3.0,East,3.5,-,0.01,,Overcast,80,2013-10-28 12:56:00
5:16 AM,39.2,37.4,93,29.21,3.0,Calm,Calm,-,N/A,,Overcast,0,2013-10-28 13:16:00
5:36 AM,39.2,37.4,93,29.20,3.0,Calm,Calm,-,0.01,,Overcast,0,2013-10-28 13:36:00
5:56 AM,39.2,37.4,93,29.19,3.0,ESE,4.6,-,0.01,,Overcast,120,2013-10-28 13:56:00
6:16 AM,39.2,37.4,93,29.17,2.5,Calm,Calm,-,N/A,,Overcast,0,2013-10-28 14:16:00
6:36 AM,39.2,37.4,93,29.16,2.5,Calm,Calm,-,N/A,,Overcast,0,2013-10-28 14:36:00
6:56 AM,39.2,37.4,93,29.16,1.8,Calm,Calm,-,N/A,,Overcast,0,2013-10-28 14:56:00
7:16 AM,39.2,39.2,100,29.16,2.5,Calm,Calm,-,N/A,,Overcast,0,2013-10-28 15:16:00
7:36 AM,39.2,39.2,100,29.16,2.0,Calm,Calm,-,N/A,,Overcast,0,2013-10-28 15:36:00
7:56 AM,39.2,39.2,100,29.16,1.5,SSE,3.5,-,N/A,,Overcast,150,2013-10-28 15:56:00
8:36 AM,41.0,39.2,93,29.16,5.0,South,4.6,-,N/A,,Overcast,170,2013-10-28 16:36:00
8:56 AM,41.0,39.2,93,29.17,2.5,South,5.8,-,N/A,,Overcast,170,2013-10-28 16:56:00
9:36 AM,41.0,39.2,93,29.17,10.0,SSE,9.2,-,N/A,,Mostly Cloudy,160,2013-10-28 17:36:00
9:56 AM,41.0,39.2,93,29.18,10.0,South,8.1,-,N/A,,Overcast,180,2013-10-28 17:56:00
10:16 AM,41.0,39.2,93,29.18,10.0,SSE,6.9,-,N/A,,Overcast,160,2013-10-28 18:16:00
10:36 AM,41.0,37.4,87,29.18,10.0,South,5.8,-,N/A,,Overcast,190,2013-10-28 18:36:00
11:16 AM,39.2,37.4,93,29.19,10.0,South,5.8,-,N/A,,Overcast,190,2013-10-28 19:16:00
11:36 AM,39.2,37.4,93,29.19,10.0,South,5.8,-,N/A,,Overcast,190,2013-10-28 19:36:00
11:56 AM,39.2,37.4,93,29.19,10.0,SSE,8.1,-,N/A,,Overcast,160,2013-10-28 19:56:00
12:16 PM,39.2,37.4,93,29.19,10.0,South,5.8,-,N/A,,Overcast,170,2013-10-28 20:16:00
12:36 PM,39.2,37.4,93,29.20,10.0,South,3.5,-,N/A,,Overcast,190,2013-10-28 20:36:00
12:56 PM,39.2,37.4,93,29.20,10.0,South,4.6,-,N/A,,Overcast,180,2013-10-28 20:56:00
1:16 PM,41.0,37.4,87,29.19,10.0,South,5.8,-,N/A,,Overcast,170,2013-10-28 21:16:00
1:36 PM,39.2,37.4,93,29.19,10.0,South,6.9,-,N/A,,Overcast,190,2013-10-28 21:36:00
1:56 PM,41.0,37.4,87,29.19,10.0,South,6.9,-,N/A,,Overcast,180,2013-10-28 21:56:00
2:16 PM,41.0,37.4,87,29.19,10.0,South,3.5,-,N/A,,Overcast,190,2013-10-28 22:16:00
2:36 PM,41.0,37.4,87,29.20,10.0,SSW,3.5,-,N/A,,Overcast,210,2013-10-28 22:36:00
3:16 PM,41.0,37.4,87,29.20,10.0,South,8.1,-,N/A,,Overcast,170,2013-10-28 23:16:00
3:36 PM,41.0,35.6,81,29.20,10.0,South,6.9,-,N/A,,Overcast,180,2013-10-28 23:36:00
4:56 PM,41.0,37.4,87,29.21,10.0,South,6.9,-,N/A,,Overcast,170,2013-10-29 00:56:00
5:16 PM,39.2,35.6,87,29.22,10.0,South,4.6,-,N/A,,Overcast,180,2013-10-29 01:16:00
5:36 PM,39.2,35.6,87,29.22,10.0,South,4.6,-,N/A,,Overcast,190,2013-10-29 01:36:00
5:56 PM,39.2,35.6,87,29.23,10.0,South,5.8,-,N/A,,Overcast,190,2013-10-29 01:56:00
6:36 PM,39.2,35.6,87,29.25,10.0,SSW,4.6,-,N/A,,Overcast,200,2013-10-29 02:36:00
7:16 PM,37.4,33.8,87,29.27,10.0,SSW,6.9,-,N/A,,Overcast,210,2013-10-29 03:16:00
7:36 PM,37.4,33.8,87,29.28,10.0,SSW,5.8,-,N/A,,Mostly Cloudy,210,2013-10-29 03:36:00
7:56 PM,37.4,33.8,87,29.29,10.0,SSW,6.9,-,N/A,,Overcast,200,2013-10-29 03:56:00
8:16 PM,37.4,33.8,87,29.31,10.0,SSW,4.6,-,N/A,,Overcast,200,2013-10-29 04:16:00
8:56 PM,35.6,33.8,93,29.33,10.0,SSW,4.6,-,N/A,,Overcast,200,2013-10-29 04:56:00
9:36 PM,35.6,33.8,93,29.35,10.0,South,4.6,-,N/A,,Overcast,180,2013-10-29 05:36:00
9:56 PM,35.6,33.8,93,29.37,10.0,SSW,5.8,-,N/A,,Overcast,210,2013-10-29 05:56:00
10:36 PM,35.6,33.8,93,29.39,10.0,SW,3.5,-,N/A,,Scattered Clouds,220,2013-10-29 06:36:00
10:56 PM,35.6,33.8,93,29.40,10.0,SW,5.8,-,N/A,,Partly Cloudy,230,2013-10-29 06:56:00
11:36 PM,37.4,33.8,87,29.42,10.0,SW,4.6,-,N/A,,Mostly Cloudy,230,2013-10-29 07:36:00
11:56 PM,37.4,33.8,87,29.43,10.0,SW,4.6,-,N/A,,Scattered Clouds,220,2013-10-29 07:56:00